Tracking 29892 objects as of 21-Nov-2024
HD Live streaming from Space Station
objects crossing your sky now

COSMOS 637

Track COSMOS 637 now!
COSMOS 637 is classified as:


NORAD ID: 7229
Int'l Code: 1974-017A
Perigee: 35,488.2 km
Apogee: 35,813.8 km
Inclination: 2.3 °
Period: 1,428.8 minutes
Semi major axis: 42021 km
RCS: 2.5118 m2 (large)
Launch date: March 26, 1974
Source: Commonwealth of Independent States (former USSR) (CIS)
Launch site: TYURATAM MISSILE AND SPACE COMPLEX (TTMTR)
Your satellite tracking list
Your tracking list is empty




NASA's NSSDC Master Catalog

Two Line Element Set (TLE):
1 07229U 74017A   24325.77418785  .00000078  00000-0  00000-0 0  9997
2 07229   2.2971 269.5697 0038743  51.0176  61.8426  1.00783107116420
Source of the keplerian elements: AFSPC